Location: Beulah
(33.1426°N, 83.0557°W)
Time: 10:12:41
(UTC+00:00)

Tiangong - Visible Passes

Search period start: 02 December 2021 00:00
Search period end: 12 December 2021 00:00
Orbit: 380 x 384 km, 41.5° (Epoch: 01 December)

Date Brightness Start Highest point End Pass type
(mag) Time Alt. Az. Time Alt. Az. Time Alt. Az.
05 Dec 3.6 00:23:12 10° SSW 00:24:07 17° SSW 00:24:07 17° SSW visible
05 Dec 3.1 23:23:41 10° S 23:25:48 17° SE 23:26:50 15° ESE visible
06 Dec 1.2 23:58:45 10° SW 00:01:40 64° S 00:01:40 64° S visible
07 Dec 2.2 22:58:38 10° SSW 23:01:29 32° SE 23:04:13 11° E visible
08 Dec 3.8 00:35:17 10° W 00:36:23 18° W 00:36:23 18° W visible
08 Dec 1.2 23:34:33 10° WSW 23:37:41 63° NNW 23:38:52 33° NE visible
10 Dec 3.0 00:11:25 10° WNW 00:13:27 23° NW 00:13:27 23° NW visible
10 Dec 2.1 23:10:29 10° W 23:13:27 37° NNW 23:15:49 14° NE visible
11 Dec 2.9 23:47:31 10° WNW 23:49:58 20° N 23:50:18 20° N visible
